STARLINK-2164, 47750

Orbit data source: Space-Track

STARLINK-2164, 47750 is a payload satellite owned by SpaceX/Seattle (US) in LEO that was launched on Thu, 04 Mar 2021 UTC via an FALCON 9 launch vehicle from the Air Force Eastern Test Range (AFETR). Payload-class satellites include a variety of spacecraft equipped with specific instruments for various scientific and technological missions. These include communications satellites like Starlink; space stations such as the ISS; scientific satellites like the Hubble; Earth observation satellites from companies like Planet Labs, Umbra, and HawkEye 360; GPS; miniature CubeSats for education and research; and military/defense satellites.

Loading next visibility...
Identifier
47750, 2021-017AE
Orbit
LEO
Country
Flag of USUS
Related business
Manufacturer
SpaceX/Seattle
Mission
Operational Commercial Communications
Bus & Motor
STARLINK, Unknown motor
Mass
260 kg wet, ~248 kg dry
Launch date (UTC)
2021-03-04 (5 years ago)
Launch vehicle
FALCON 9
Launch site
Air Force Eastern Test Range (AFETR)
Object type
Payload
Rocket body
Debris
Shape & HBR
Box + 1 Pan, 10.1 m
Radar Cross Section
13.562 m², Large (>1 m²)

Expand to show TLE details & history
Last TLE update: 2 days ago

TLE from 2 days ago
0 STARLINK-2164
1 47750U 21017AE  26171.43159725  .00001789  00000-0  69389-4 0  9991
2 47750  53.1616  75.5579 0001329  99.0308 261.0844 15.31709557293731
Epoch: 2026-06-20T10:21Z
TLE epoch observation values (Epoch: 2026-06-20T10:21:30.002Z)
Latitude
-0.00001°
Longitude
11.53657°
Altitude
471.753 km
Speed
7.631 km/s
True Right ascension
05h 02m 13s
True Declination
0° 00' 00"
Sunlit
Object was in daylight at epoch
Visualization orbit readout
Latitude
Unknown
Longitude
Unknown
Altitude
Unknown
Speed
Unknown
Apparent Right ascension
Unknown
Apparent Declination
Unknown
Sunlit
N/A
Visualization observer readout
Local Sidereal Time
21:54:29
Azimuth
Unknown
Elevation
Unknown
Doppler factor
Unknown
Orbital elements
Apogee altitude
471.878 km
Perigee altitude
470.058 km
Semi-major axis
6,849.105 km
Eccentricity
0.00013
Inclination
53.1616°
RAAN
75.5579°
Arg. of periapsis
99.0308°
True anomaly
261.06936°
Mean anomaly
261.0844°
Eccentric anomaly
261.07688°
Mean motion
3.82906 °/min
Orbital period
94.02 mins
BSTAR
0.000069389
Loading maneuver chart data...
Computing Atmospheric mass density...

Documentation

Showing up to 5 results
|